TimeEST,TemperatureF,Dew PointF,Humidity,Sea Level PressureIn,VisibilityMPH,Wind Direction,Wind SpeedMPH,Gust SpeedMPH,PrecipitationIn,Events,Conditions,WindDirDegrees,DateUTC
12:55 AM,46.4,45.5,97,30.36,10.0,Calm,Calm,-,N/A,,Clear,0,2012-11-11 05:55:00
1:55 AM,46.4,45.5,97,30.35,10.0,Calm,Calm,-,N/A,,Partly Cloudy,0,2012-11-11 06:55:00
2:55 AM,50.2,48.9,95,30.34,10.0,Calm,Calm,-,N/A,,Overcast,0,2012-11-11 07:55:00
3:55 AM,52.5,50.4,92,30.34,10.0,Calm,Calm,-,N/A,,Overcast,0,2012-11-11 08:55:00
4:55 AM,54.7,51.4,89,30.35,10.0,Calm,Calm,-,N/A,,Overcast,0,2012-11-11 09:55:00
5:55 AM,55.6,51.3,85,30.35,10.0,Calm,Calm,-,N/A,,Overcast,0,2012-11-11 10:55:00
6:55 AM,55.9,51.8,86,30.37,10.0,Calm,Calm,-,N/A,,Overcast,0,2012-11-11 11:55:00
7:55 AM,59.2,53.4,81,30.40,10.0,Calm,Calm,-,N/A,,Overcast,0,2012-11-11 12:55:00
8:55 AM,63.7,54.9,73,30.40,10.0,NE,3.5,-,N/A,,Clear,40,2012-11-11 13:55:00
9:55 AM,70.3,56.7,62,30.40,10.0,NE,6.9,-,N/A,,Clear,40,2012-11-11 14:55:00
10:55 AM,74.5,57.0,54,30.40,10.0,Calm,Calm,-,N/A,,Clear,0,2012-11-11 15:55:00
11:55 AM,76.3,56.5,50,30.39,10.0,East,10.4,-,N/A,,Mostly Cloudy,80,2012-11-11 16:55:00
12:55 PM,73.6,57.0,56,30.37,10.0,East,8.1,-,N/A,,Overcast,100,2012-11-11 17:55:00
1:55 PM,75.9,57.9,54,30.35,10.0,ESE,8.1,-,N/A,,Mostly Cloudy,110,2012-11-11 18:55:00
2:55 PM,73.4,58.6,60,30.35,10.0,SE,5.8,-,N/A,,Partly Cloudy,130,2012-11-11 19:55:00
3:55 PM,76.5,57.7,52,30.34,10.0,East,12.7,-,N/A,,Mostly Cloudy,90,2012-11-11 20:55:00
4:55 PM,73.2,58.6,60,30.34,10.0,East,8.1,-,N/A,,Clear,90,2012-11-11 21:55:00
5:55 PM,66.7,59.0,76,30.34,10.0,Calm,Calm,-,N/A,,Clear,0,2012-11-11 22:55:00
6:55 PM,64.9,59.7,83,30.35,10.0,Calm,Calm,-,N/A,,Scattered Clouds,0,2012-11-11 23:55:00
7:55 PM,63.0,59.9,90,30.35,10.0,Calm,Calm,-,N/A,,Mostly Cloudy,0,2012-11-12 00:55:00
8:55 PM,59.0,57.6,95,30.34,10.0,Calm,Calm,-,N/A,,Clear,0,2012-11-12 01:55:00
9:55 PM,58.6,58.6,100,30.35,10.0,Calm,Calm,-,N/A,,Clear,0,2012-11-12 02:55:00
10:55 PM,56.3,56.3,100,30.33,10.0,Calm,Calm,-,N/A,,Partly Cloudy,0,2012-11-12 03:55:00
11:55 PM,55.6,55.4,99,30.32,10.0,Calm,Calm,-,N/A,,Clear,0,2012-11-12 04:55:00